Weather in Pszczyna

Poland     49°58′33″N   18°56′58″E
temp.,
°C
wind,
m/s
gust,
m/s
humid.,
%
clouds,
%
prec.,
mm/h
press.,
hPa
HPBL,
m
15 may, sat
sat1523:00+10sw2392100 0.2 1009122
02:00+10sw2492100 0.2 1010148
05:00+8wsw2495100 0.0 101076
08:00+12sw23805 0.0 1010334
11:00+16sw2259100 0.0 10101212
14:00+18wsw1252100 0.1 10081529
17:00+17ssw2262100 1.4 1008745
20:00+13sse1180100 3.3 100713
16 may, sun
sun1623:00+11s2288100 0.8 100719
02:00+11ssw118778 0.8 100711
05:00+11se1290100 0.2 100632
08:00+12sw2389100 1.0 1007223
11:00+11sw1391100 5.7 1007247
14:00+12wsw4591100 7.7 1007586
17:00+12wsw238468 1.1 1007532
20:00+11s22875 1.1 100715
17 may, mon
mon1723:00+9s33905 0.0 100750
02:00+8s1290100 0.0 100712
05:00+9s1186100 0.0 100611
08:00+11sw2484100 0.1 1007216
11:00+11w2489100 0.5 1007319
14:00+10sw3595100 1.5 1008292
17:00+13sw347878 0.4 1006742
20:00+11wsw37902 1.0 1007164
18 may, tue
tue1823:00+8wsw489550 0.1 1008246
02:00+8wsw4794100 0.1 1009250
05:00+8wsw489195 0.0 1009340
08:00+10sw568096 0.0 1010503
11:00+12wsw687373 0.1 1011907
14:00+14wsw796699 1.2 10101555
17:00+14w577163 0.8 10101242
20:00+10w379096 1.9 1012186
19 may, wed
wed1923:00+8sw489632 0.7 1014176
02:00+8wsw599490 0.8 1014309
05:00+8wsw5993100 0.0 1015377
08:00+8wsw4793100 0.1 1016424
11:00+9wsw3794100 0.9 1017527
14:00+8wnw4893100 2.1 1017580
17:00+10sw3383100 1.5 1017659
20:00+8ssw238910 1.6 101748